Location: Menands
(42.6920°N, 73.7246°W)
Time: 17:57:15
(UTC+00:00)

Cosmos 1346 Rocket - Pass Details

Date: 18 February 2026
Orbit: 476 x 485 km, 81.2° (Epoch: 12 March)

Event Time Altitude Azimuth Distance (km) Brightness Sun altitude
Rises 23:06:45 0° 176° (S) 2,518 6.3 -7.3°
Reaches altitude 10° 23:08:52 10° 171° (S) 1,646 5.3 -7.7°
Maximum altitude 23:12:21 49° 96° (E) 628 2.7 -8.3°
Drops below altitude 10° 23:15:52 10° 21° (NNE) 1,666 5.0 -9.0°
Sets 23:18:01 0° 16° (NNE) 2,553 6.0 -9.4°
